Location: Kaarina
(60.4167°N, 22.4167°E)
Time: 16:29:57
(UTC+03:00)

Cosmos 1536 Rocket - Pass Details

Date: 24 August 2019
Orbit: 604 x 634 km, 82.5° (Epoch: 22 September)

Event Time Altitude Azimuth Distance (km) Brightness Sun altitude
Rises 23:11:00 0° 345° (NNW) 2,930 8.5 -13.3°
Reaches altitude 10° 23:13:15 10° 344° (NNW) 2,014 7.4 -13.4°
Maximum altitude 23:17:43 78° 259° (W) 643 3.6 -13.7°
Enters shadow 23:20:50 19° 175° (S) 1,478 5.0 -13.9°
